Location: Bijele Vode
(45.2833°N, 16.2000°E)
Time: 11:50:55
(UTC+00:00)

CENTAUR R/B - Pass Details

Date: 18 January 2021
Orbit: 742 x 1446 km, 63.5° (Epoch: 02 March)

Event Time Altitude Azimuth Distance (km) Brightness Sun altitude
Rises 05:12:56 0° 168° (SSE) 3,334 5.7 -13.2°
Reaches altitude 10° 05:15:52 10° 151° (SSE) 2,494 5.3 -12.7°
Maximum altitude 05:19:55 20° 106° (ESE) 2,025 5.4 -12.0°
Drops below altitude 10° 05:24:23 10° 62° (ENE) 2,816 5.6 -11.2°
Sets 05:27:57 0° 47° (NE) 3,914 6.1 -10.6°
